[[{"header":{"parameterUnit":"m.s-1","parameterCategory":1,"la1":30.2991,"la2":30.254,"lo1":-89.0895,"lo2":-89.0444,"dx":0.0017,"dy":0.0017,"nx":28,"ny":28,"refTime":"2022-12-14T09:00:00:Z","depth":0,"parameterNumber":2,"parameterNumberName":"U-component_of_WINDS"},"data":[0,0,0,0,0,0,0,0,0,0,0,0,0,0,0,0,0,0,0,0,0,0,0,0,0,0,0,0,0,0,0,0,0,0,0,0,0,0,0,0,0,0,0,0,0,0,0,0,0,0,0,0,0,0,0,0,0,0,3.9936,3.9937,0,3.9991,3.9992,3.9993,3.993,3.9928,3.9925,3.9923,3.9982,3.9986,3.999,0,0,0,0,0,0,0,0,0,0,0,0,0,3.9782,3.9785,3.9936,3.9937,3.9938,3.9991,3.9992,3.9993,3.9931,3.9928,3.9925,3.9922,3.9981,3.9985,3.999,0,0,0,0,0,0,0,0,0,0,0,0,0,3.9844,3.9786,3.9936,3.9913,3.9912,3.9991,3.9992,3.9993,3.9931,3.9928,3.9924,3.9921,3.9979,3.9985,3.9991,4.0096,0,0,4.0008,4.001,0,0,0,0,0,0,0,0,3.9841,3.985,3.9916,3.9915,3.9913,3.995,3.9959,4.0028,3.9932,3.9924,3.9923,3.9919,3.9975,3.998,3.9999,4.0099,4.0102,4.0008,4.0012,4.0014,4.0016,0,0,0,0,0,0,0,3.9836,3.9847,3.9958,3.9917,3.9915,3.9901,3.9906,3.9972,3.9969,3.9924,3.992,3.9927,3.9973,3.9993,4.0,4.0103,4.0008,4.0013,4.0017,4.0019,4.0296,4.03,0,0,0,0,0,0,3.9834,3.9844,3.9956,3.996,3.9867,3.9907,3.9913,3.9942,3.9968,3.9968,3.993,3.9924,3.9985,3.9993,4.0001,4.0129,4.0014,4.0019,4.0023,4.0293,4.0297,4.0302,0,0,0,0,0,0,3.9831,3.9845,3.9954,3.9901,3.9914,3.9913,3.9947,3.9945,3.9965,3.9972,3.9971,3.9951,3.9983,3.9993,4.0074,4.013,4.0022,4.0027,4.0288,4.0294,4.03,4.0383,0,0,0,0,0,0,3.9827,3.9844,3.9883,3.9902,3.9917,4.0024,3.995,3.9949,3.9974,3.9967,3.9991,3.9992,3.9981,4.0066,4.0079,4.0136,4.0032,4.0283,4.0291,4.0298,4.0376,4.0391,4.0405,0,0,0,0,0,3.9822,3.9904,3.9885,3.9899,3.9965,4.0028,4.0036,4.0021,3.9979,4.0019,4.0025,3.9991,4.0122,4.0074,4.0089,4.0148,4.0279,4.0288,4.0297,4.0369,4.0388,4.0405,0,0,0,0,0,0,3.9891,3.9906,3.9885,3.9976,4.0001,4.0017,4.0066,4.0042,4.0079,4.0071,4.0052,4.0058,4.0144,4.0154,4.0101,4.0254,4.0194,4.0206,4.0243,4.0262,4.0276,4.0272,4.0036,0,0,0,0,0,3.9918,3.9966,3.9977,4.0056,4.007,4.0067,4.0093,4.008,4.0105,4.0115,4.0126,4.0153,4.0201,4.0232,4.0276,4.0377,4.0383,4.0426,4.044,4.0452,4.0463,4.0521,4.054,4.0331,4.0331,4.0331,0,0,3.9972,3.9986,4.0017,4.0071,4.0088,4.0141,4.0076,4.0133,4.0172,4.0124,4.0201,4.021,4.024,4.0332,4.0373,4.0343,4.0523,4.0464,4.0473,4.0478,4.0532,4.0552,4.0569,4.0337,4.0336,4.0335,0,0,4.0097,4.0112,4.0181,4.02,4.0228,4.0226,4.0243,4.0263,4.0268,4.0345,4.0311,4.0358,4.0439,4.0462,4.0484,4.0623,4.0595,4.0638,4.0715,4.0771,4.0787,4.0802,4.0853,4.0871,4.0649,4.0649,4.0649,0,4.0161,4.0237,4.0219,4.028,4.0305,4.0265,4.0336,4.0356,4.0398,4.0417,4.0383,4.0486,4.0503,4.0601,4.0635,4.0654,4.0675,4.0634,4.0786,4.0801,4.0814,4.0862,4.0881,4.0654,4.0654,4.0653,4.0653,0,4.0315,4.0369,4.0421,4.0462,4.0494,4.0559,4.0553,4.0588,4.0573,4.0575,4.0656,4.0675,4.0723,4.0746,4.0731,4.0843,4.0824,4.0789,4.0728,4.0839,4.0885,4.0903,4.0662,4.066,4.0658,4.0657,0,0,4.0483,4.0516,4.0535,4.0555,4.0584,4.0626,4.0692,4.0738,4.0769,4.08,4.0856,4.0927,4.0896,4.0921,4.091,4.0959,4.107,4.0918,4.0919,4.0947,4.1198,4.1224,4.1245,4.1052,4.1056,4.1058,4.1195,0,4.061,4.0721,4.0709,4.0816,4.0867,4.0831,4.0889,4.0914,4.0919,4.0964,4.097,4.1022,4.0975,4.0991,4.1038,4.1047,4.112,4.1037,4.1105,4.1108,4.1099,4.1269,4.1296,4.1424,4.1213,4.1216,4.1218,0,4.0771,4.0809,4.0921,4.0945,4.0966,4.1017,4.1061,4.1104,4.1134,4.1134,4.1165,4.1146,4.1214,4.1153,4.1248,4.1191,4.1219,4.1228,4.1233,4.1238,4.1169,4.1279,4.1464,4.1484,4.1245,4.1243,4.1241,0,4.0885,4.0963,4.104,4.1058,4.1088,4.1126,4.114,4.1166,4.1196,4.1235,4.1255,4.1302,4.1328,4.1365,4.1361,4.1316,4.1458,4.1396,4.1462,4.1462,4.1492,4.1491,4.1685,4.1511,4.1511,4.151,4.151,0,4.1027,4.1097,4.1092,4.114,4.1218,4.1205,4.1284,4.1295,4.1319,4.137,4.1343,4.1391,4.1382,4.1431,4.1428,4.1509,4.1521,4.1524,4.1523,4.1527,4.1526,4.1544,4.1535,4.1515,4.1514,4.1513,4.1512,0,4.1166,4.1165,4.1247,4.127,4.1278,4.1335,4.1355,4.1401,4.1405,4.147,4.1485,4.1491,4.1549,4.1548,4.1613,4.1611,4.171,4.1698,4.17,4.1697,4.1764,4.1758,4.1976,4.2005,4.1812,4.1814,4.1815,0,4.1257,4.131,4.1339,4.1371,4.1388,4.1439,4.147,4.1461,4.1494,4.1534,4.1577,4.1631,4.1674,4.1768,4.178,4.183,4.182,4.1893,4.1827,4.183,4.1822,4.1819,4.1825,4.1906,4.1908,4.1909,4.1911,0,4.1419,4.1416,4.1461,4.1507,4.1545,4.158,4.1613,4.1641,4.1636,4.1676,4.1733,4.1767,4.1835,4.189,4.194,4.1957,4.1934,4.1932,4.195,4.1954,4.1953,4.1956,4.1735,4.1927,4.1925,4.1924,4.1923,4.1922,4.1537,4.1583,4.1612,4.1663,4.1687,4.172,4.1765,4.1775,4.1823,4.1876,4.1868,4.1934,4.1966,4.203,4.2052,4.2105,4.2079,4.2105,4.2111,4.2118,4.2126,4.1946,4.2114,4.2113,4.2113,4.2112,4.2112,0,4.1698,4.1715,4.1763,4.181,4.1852,4.1826,4.1863,4.19,4.1957,4.1988,4.2032,4.21,4.2155,4.2172,4.2225,4.2264,4.2256,4.2279,4.2276,4.2281,4.2145,4.2124,4.2285,4.2285,4.2285,4.2285,4.2285,4.2285,4.1787,4.1865,4.1867,4.1958,4.1974,4.2037,4.2061,4.2091,4.2116,4.2193,4.2238,4.2249,4.2276,4.2332,4.2382,4.2386,4.2407,4.2435,4.2435,4.2307,4.229,4.2273,4.2254,4.2439,4.244,4.2566,4.2567,4.2568]},{"header":{"parameterUnit":"m.s-1","parameterCategory":1,"la1":30.2991,"la2":30.254,"lo1":-89.0895,"lo2":-89.0444,"dx":0.0017,"dy":0.0017,"nx":28,"ny":28,"refTime":"2022-12-14T09:00:00:Z","depth":0,"parameterNumber":3,"parameterNumberName":"V-component_of_WINDS"},"data":[0,0,0,0,0,0,0,0,0,0,0,0,0,0,0,0,0,0,0,0,0,0,0,0,0,0,0,0,0,0,0,0,0,0,0,0,0,0,0,0,0,0,0,0,0,0,0,0,0,0,0,0,0,0,0,0,0,0,-4.8355,-4.836,0,-4.877,-4.8775,-4.878,-4.8904,-4.8902,-4.89,-4.8898,-4.9326,-4.9339,-4.9353,0,0,0,0,0,0,0,0,0,0,0,0,0,-4.7676,-4.7688,-4.8355,-4.836,-4.8365,-4.8769,-4.8775,-4.8781,-4.8905,-4.8902,-4.8899,-4.8897,-4.9322,-4.9338,-4.9354,0,0,0,0,0,0,0,0,0,0,0,0,0,-4.8019,-4.7692,-4.8354,-4.8476,-4.8491,-4.8768,-4.8775,-4.8782,-4.8905,-4.8902,-4.8899,-4.8896,-4.9317,-4.9336,-4.9356,-4.9544,0,0,-4.9417,-4.9426,0,0,0,0,0,0,0,0,-4.8,-4.8044,-4.8453,-4.8468,-4.8485,-4.8782,-4.8693,-4.9038,-4.8906,-4.8748,-4.8898,-4.8894,-4.9148,-4.9182,-4.9267,-4.9564,-4.9582,-4.9419,-4.9431,-4.944,-4.9446,0,0,0,0,0,0,0,-4.7976,-4.8027,-4.8519,-4.8459,-4.8478,-4.8512,-4.8557,-4.8759,-4.8961,-4.8761,-4.8771,-4.8819,-4.9156,-4.9247,-4.9278,-4.9588,-4.9419,-4.9437,-4.9449,-4.9457,-5.0064,-5.0068,0,0,0,0,0,0,-4.793,-4.8006,-4.8506,-4.8532,-4.8229,-4.8527,-4.8577,-4.869,-4.8959,-4.8997,-4.8821,-4.8823,-4.9214,-4.9254,-4.9293,-4.9533,-4.944,-4.9459,-4.947,-5.006,-5.0065,-5.007,0,0,0,0,0,0,-4.7915,-4.7974,-4.849,-4.8272,-4.834,-4.8542,-4.8668,-4.87,-4.8791,-4.9004,-4.9041,-4.8876,-4.9214,-4.9265,-4.9481,-4.955,-4.9468,-4.9486,-5.0055,-5.0062,-5.0068,-5.0012,0,0,0,0,0,0,-4.7895,-4.7968,-4.8039,-4.8273,-4.8351,-4.8668,-4.8672,-4.871,-4.8825,-4.8831,-4.9066,-4.9101,-4.9215,-4.9451,-4.9501,-4.9576,-4.9502,-5.005,-5.0058,-5.0066,-5.0008,-5.0015,-5.0021,0,0,0,0,0,-4.7871,-4.8007,-4.8042,-4.8102,-4.8445,-4.8672,-4.8717,-4.8844,-4.8829,-4.8905,-4.9042,-4.9094,-4.9534,-4.9472,-4.953,-4.9611,-5.0047,-5.0056,-5.0065,-5.0006,-5.0014,-5.0021,0,0,0,0,0,0,-4.7777,-4.804,-4.8081,-4.8297,-4.8461,-4.8692,-4.879,-4.8848,-4.9021,-4.902,-4.9171,-4.9223,-4.9429,-4.9542,-4.9468,-4.9809,-4.9792,-4.9813,-4.9727,-4.9737,-4.9743,-4.9712,-4.9518,0,0,0,0,0,-4.7781,-4.7942,-4.8163,-4.8332,-4.8413,-4.8587,-4.8691,-4.8775,-4.8951,-4.9021,-4.9175,-4.9345,-4.9523,-4.9636,-4.9811,-5.0026,-5.008,-5.0111,-5.0117,-5.0121,-5.0138,-5.0263,-5.028,-5.01,-5.01,-5.01,0,0,-4.7791,-4.7955,-4.8047,-4.8318,-4.8455,-4.862,-4.8645,-4.8818,-4.8943,-4.9048,-4.9262,-4.9381,-4.9582,-4.9798,-4.9902,-4.9899,-5.02,-5.0133,-5.0135,-5.015,-5.0275,-5.0291,-5.0306,-5.0106,-5.0105,-5.0104,0,0,-4.7895,-4.8034,-4.8191,-4.8328,-4.8536,-4.8652,-4.8689,-4.8913,-4.8996,-4.9213,-4.9296,-4.9448,-4.9749,-4.989,-5.0001,-5.0162,-5.0217,-5.0215,-5.0248,-5.0368,-5.0382,-5.0396,-5.0455,-5.0474,-5.023,-5.023,-5.023,0,-4.7882,-4.8133,-4.8265,-4.8435,-4.8553,-4.8656,-4.8818,-4.8946,-4.9199,-4.9279,-4.9273,-4.9655,-4.9798,-5.005,-5.009,-5.0175,-5.0225,-5.0188,-5.0369,-5.0384,-5.0399,-5.0457,-5.0479,-5.0229,-5.0229,-5.0229,-5.0229,0,-4.8108,-4.8281,-4.8384,-4.8626,-4.8756,-4.8921,-4.908,-4.9196,-4.927,-4.9387,-4.9608,-4.9783,-4.9996,-5.0062,-5.0136,-5.0327,-5.0319,-5.0339,-5.0325,-5.0412,-5.047,-5.0493,-5.0227,-5.0227,-5.0228,-5.0228,0,0,-4.8162,-4.8477,-4.8513,-4.8626,-4.8863,-4.9001,-4.9172,-4.9381,-4.9478,-4.9651,-4.98,-5.0054,-5.0075,-5.0201,-5.0291,-5.0397,-5.0516,-5.0405,-5.0412,-5.042,-5.0741,-5.0725,-5.0748,-5.0554,-5.0559,-5.0563,-5.0725,0,-4.8297,-4.8605,-4.8731,-4.8982,-4.9145,-4.9247,-4.9397,-4.9561,-4.9676,-4.9833,-4.9961,-5.0139,-5.0152,-5.0229,-5.0338,-5.0478,-5.0583,-5.0468,-5.0697,-5.0703,-5.0643,-5.0778,-5.0762,-5.0906,-5.0748,-5.0752,-5.0754,0,-4.8495,-4.8669,-4.8935,-4.9157,-4.923,-4.9362,-4.9565,-4.9713,-4.9902,-4.9979,-5.0121,-5.0206,-5.0393,-5.0367,-5.0628,-5.0547,-5.0649,-5.0732,-5.0741,-5.0767,-5.0734,-5.081,-5.0954,-5.0976,-5.0791,-5.0788,-5.0785,0,-4.8509,-4.8811,-4.901,-4.9103,-4.9366,-4.9457,-4.9571,-4.9756,-4.9875,-5.0053,-5.0132,-5.0329,-5.0437,-5.0589,-5.0727,-5.0695,-5.0975,-5.096,-5.1046,-5.1043,-5.1101,-5.1095,-5.1264,-5.1164,-5.1163,-5.1163,-5.1163,0,-4.8647,-4.8807,-4.9021,-4.9143,-4.9326,-4.9471,-4.9649,-4.977,-4.9935,-5.0085,-5.0186,-5.0325,-5.0498,-5.066,-5.0769,-5.097,-5.1018,-5.1087,-5.1114,-5.1079,-5.107,-5.1147,-5.1141,-5.1169,-5.1168,-5.1167,-5.1166,0,-4.8694,-4.8843,-4.9067,-4.9298,-4.936,-4.9485,-4.9684,-4.9809,-4.9929,-5.0118,-5.0171,-5.0361,-5.0557,-5.071,-5.0965,-5.1039,-5.1252,-5.1281,-5.1187,-5.1202,-5.1279,-5.127,-5.1505,-5.1544,-5.1415,-5.1416,-5.1417,0,-4.8772,-4.8897,-4.9142,-4.9249,-4.9362,-4.9533,-4.9655,-4.9803,-4.9926,-5.0153,-5.0251,-5.0454,-5.0625,-5.0934,-5.1096,-5.1293,-5.1329,-5.1398,-5.1359,-5.132,-5.1332,-5.1323,-5.1338,-5.1402,-5.1403,-5.1403,-5.1404,0,-4.8895,-4.8964,-4.9134,-4.9332,-4.9474,-4.9637,-4.9802,-4.9885,-5.0064,-5.0197,-5.0399,-5.0531,-5.0793,-5.0995,-5.1209,-5.1329,-5.1398,-5.1415,-5.1445,-5.141,-5.1352,-5.1386,-5.1201,-5.1408,-5.1408,-5.1408,-5.1407,-5.1407,-4.8962,-4.9079,-4.927,-4.9457,-4.9598,-4.975,-4.9879,-5.0017,-5.0188,-5.0412,-5.049,-5.0698,-5.0889,-5.1183,-5.1305,-5.1472,-5.1475,-5.1519,-5.153,-5.1539,-5.1537,-5.1324,-5.1512,-5.1512,-5.1512,-5.1512,-5.1512,0,-4.9091,-4.922,-4.9391,-4.9619,-4.9768,-4.9819,-5.0006,-5.0127,-5.0309,-5.048,-5.0646,-5.088,-5.1077,-5.1255,-5.1461,-5.1561,-5.1598,-5.161,-5.1605,-5.1632,-5.1521,-5.1474,-5.1577,-5.1577,-5.1577,-5.1577,-5.1577,-5.1577,-4.9176,-4.9378,-4.947,-4.9744,-4.9873,-5.0077,-5.0179,-5.0322,-5.046,-5.0716,-5.088,-5.0995,-5.1171,-5.1391,-5.1575,-5.1623,-5.1695,-5.1699,-5.1755,-5.1648,-5.1639,-5.1631,-5.1589,-5.1714,-5.1714,-5.1853,-5.1854,-5.1855]}]]